Zurück zum Katalog

STARLINK-35221

AktivKommunikationVLEO
NORAD 65695·PAYLOAD·🇺🇸 United States

Gestartet Sep 21, 2025 von Cape Canaveral Space Force Station

Loading…

Nächste Überflüge (nächste 24 Stunden)

TLE

AktuellSource: CelesTrak SupGP

Epoche: Sep 14, 2026, 21:37 UTC

1 65695C 25212V   26257.90118056 -.00005680  00000+0 -18255-3 0  2576
2 65695  53.1576 186.0940 0001400 108.5184 217.3146 15.31720273    16

Verfolge STARLINK-35221 in Echtzeit mit AllMySat

Download on the App Store